Regional Weather Roundup
Issued by NWS

Home | Current Version | Previous Version | Graphics & Text | Print | Product List | Glossary On
Versions: 1 2 3 4 5 6 7 8 9 10 11 12 13 14 15 16 17 18 19 20 21 22 23 24 25 26 27 28 29 30 31 32 33 34 35 36 37 38 39 40 41 42 43 44 45 46 47 48 49 50
000
ASUS43 KLMK 210810
RWRKY
KENTUCKY REGIONAL WEATHER ROUNDUP
NATIONAL WEATHER SERVICE LOUISVILLE KY
300 AM EST SAT JAN 21 2017

NOTE "FAIR" INDICATES FEW OR NO CLOUDS BELOW 12,000 FEET
WITH NO SIGNIFICANT WEATHER AND/OR OBSTRUCTIONS TO VISIBILITY.

KYZ001>023-026-027-061>063-070>075-210900-
WESTERN AND SOUTH CENTRAL KENTUCKY

CITY           SKY/WX    TMP DP  RH WIND       PRES   REMARKS
PADUCAH        PTCLDY    58  51  78 S3        29.68R
HENDERSON      PTCLDY    54  48  82 S9        29.68F
OWENSBORO      CLOUDY    51  49  92 SE3       29.71S
HOPKINSVILLE   CLOUDY    55  53  91 S6        29.73S
BOWLING GREEN  CLOUDY    58  52  80 S7        29.75R
GLASGOW        PTCLDY    57  50  79 S5        29.77R
$$

KYZ024-025-028>034-038-045-046-053-210900-
NORTH CENTRAL KENTUCKY

CITY           SKY/WX    TMP DP  RH WIND       PRES   REMARKS
LOUISVILLE/SDF CLOUDY    53  48  83 S7        29.74R
LOUISVILLE/LOU MOCLDY    53  48  83 SE3       29.75R
FORT KNOX      CLOUDY    52  50  92 S5        29.73R
$$

KYZ035>037-039>044-047>052-055>060-089>105-210900-
NORTHEAST KENTUCKY

CITY           SKY/WX    TMP DP  RH WIND       PRES   REMARKS
LEXINGTON      CLOUDY    55  48  77 S9        29.77S
COVINGTON      CLOUDY    49  46  90 S8        29.74S
FRANKFORT      MOCLDY    51  45  79 SE3       29.75R
$$

KYZ054-064>069-076>088-106>120-210900-
SOUTHEAST KENTUCKY

CITY           SKY/WX    TMP DP  RH WIND       PRES   REMARKS
JACKSON        MOCLDY    56  48  74 S3        29.82S
LONDON         CLOUDY    48  44  86 CALM      29.82R
SOMERSET       CLOUDY    54  46  76 S3        29.82R
MIDDLESBORO    MOCLDY    44  44 100 CALM      29.85S
MONTICELLO     CLOUDY    56  50  80 NE6       29.82R
$$




USA.gov is the U.S. government's official web portal to all federal, state and local government web resources and services.